Weather History for Dublin, Ireland

Change the Weather History Date:

Sunday, December 9, 2012

  Actual Average Record
Temperature  
Mean Temperature 40 °F -  
Max Temperature 46 °F 47 °F 55 °F (1998)
Min Temperature 32 °F 37 °F 24 °F (2010)
Degree Days  
Heating Degree Days 26    
Moisture  
Dew Point 38 °F    
Average Humidity 89    
Maximum Humidity 93    
Minimum Humidity 76    
Precipitation  
Precipitation 0.00 in 0.10 in - ()
Sea Level Pressure  
Sea Level Pressure 30.17 in    
Wind  
Wind Speed 16 mph ()    
Max Wind Speed 23 mph    
Max Gust Speed -    
Visibility 6.4 miles    
Events Rain    
Averages and records for this station are not official NWS values.
T = Trace of Precipitation, MM = Missing Value Source: Averaged Metar Reports

Daily Weather History Graph

Daily Weather History Graph

Search for Another Location

Airport:

Trip Planner

Search our weather history database for the weather conditions in past years. The results will help you decide how hot, cold, wet, or windy it might be!

Date:

Astronomy

Dec. 09, 2012 Rise Set
Actual Time 8:28 AM GMT 4:06 PM GMT
Civil Twilight 7:46 AM GMT 4:48 PM GMT
Nautical Twilight 7:01 AM GMT 5:33 PM GMT
Astronomical Twilight 6:18 AM GMT 6:16 PM GMT
Moon 3:15 AM GMT (12/9) 1:30 PM GMT (12/9)
Length of Visible Light 9h 02m
Length of Day
7h 37m
Waning Crescent, 20% of the Moon is Illuminated
Dec 9
Waning Crescent
Dec 13
New
Dec 20
First Quarter
Dec 28
Full
Jan 5
Last Quarter

Hourly Weather History & Observations

Time (GMT) Temp. Windchill Dew Point Humidity Pressure Visibility Wind Dir Wind Speed Gust Speed Precip Events Conditions
12:00 AM 44.6 °F 37.2 °F 42.8 °F 93% 30.24 in 5.0 mi WSW 17.3 mph - N/A   Light Drizzle
12:30 AM 44.6 °F 36.4 °F 42.8 °F 93% 30.24 in 6.2 mi West 20.7 mph - N/A   Light Drizzle
1:00 AM 44.6 °F 36.1 °F 41.0 °F 87% 30.21 in 6.2 mi WSW 21.9 mph - N/A   Light Drizzle
1:30 AM 44.6 °F 35.9 °F 41.0 °F 87% 30.21 in 6.2 mi WSW 23.0 mph - N/A   Mostly Cloudy
2:00 AM 42.8 °F 34.3 °F 41.0 °F 93% 30.21 in 6.2 mi WSW 19.6 mph - N/A   Mostly Cloudy
2:30 AM 44.6 °F 36.9 °F 41.0 °F 87% 30.18 in 6.2 mi West 18.4 mph - N/A   Mostly Cloudy
3:00 AM 42.8 °F 34.0 °F 41.0 °F 93% 30.18 in 5.6 mi WSW 20.7 mph - N/A   Light Drizzle
3:30 AM 44.6 °F 36.4 °F 41.0 °F 87% 30.18 in 5.6 mi WSW 20.7 mph - N/A   Light Drizzle
4:00 AM 42.8 °F 33.5 °F 41.0 °F 93% 30.18 in 6.2 mi West 23.0 mph - N/A   Mostly Cloudy
4:30 AM 42.8 °F 34.3 °F 41.0 °F 93% 30.18 in 6.2 mi West 19.6 mph - N/A   Mostly Cloudy
5:00 AM 42.8 °F 34.3 °F 41.0 °F 93% 30.18 in 6.2 mi WSW 19.6 mph - N/A   Mostly Cloudy
5:30 AM 42.8 °F 34.8 °F 41.0 °F 93% 30.15 in 6.2 mi WSW 17.3 mph - N/A   Mostly Cloudy
6:00 AM 43 °F - 40 °F 87% 30.18 in 12 mi WSW 22.4 mph - -   Partly Cloudy
6:00 AM 42.8 °F 34.0 °F 41.0 °F 93% 30.15 in 6.2 mi WSW 20.7 mph - N/A   Mostly Cloudy
6:30 AM 42.8 °F 34.3 °F 41.0 °F 93% 30.15 in 6.2 mi West 19.6 mph - N/A   Mostly Cloudy
7:00 AM 44.6 °F 36.4 °F 41.0 °F 87% 30.15 in 6.2 mi West 20.7 mph - N/A   Light Drizzle
7:30 AM 42.8 °F 34.5 °F 41.0 °F 93% 30.15 in 6.2 mi West 18.4 mph - N/A   Light Drizzle
8:00 AM 42.8 °F 34.3 °F 41.0 °F 93% 30.15 in 5.6 mi West 19.6 mph - N/A   Light Drizzle
8:30 AM 42.8 °F 34.5 °F 41.0 °F 93% 30.15 in 6.2 mi West 18.4 mph - N/A   Mostly Cloudy
9:00 AM 42.8 °F 34.5 °F 41.0 °F 93% 30.15 in 6.2 mi West 18.4 mph - N/A   Mostly Cloudy
9:30 AM 42.8 °F 35.1 °F 41.0 °F 93% 30.15 in 6.2 mi West 16.1 mph - N/A   Mostly Cloudy
10:00 AM 44.6 °F 37.4 °F 41.0 °F 87% 30.15 in 6.2 mi West 16.1 mph - N/A   Mostly Cloudy
10:30 AM 44.6 °F 37.8 °F 42.8 °F 93% 30.15 in 6.2 mi West 15.0 mph - N/A   Mostly Cloudy
11:00 AM 44.6 °F 37.4 °F 42.8 °F 93% 30.15 in 6.2 mi West 16.1 mph - N/A   Light Drizzle
11:30 AM 44.6 °F 37.2 °F 42.8 °F 93% 30.15 in 6.2 mi West 17.3 mph - N/A   Mostly Cloudy
12:00 PM 45 °F - 43 °F 90% 30.17 in 3 mi West 15.7 mph - - Rain Light Drizzle
12:00 PM 44.6 °F 37.4 °F 42.8 °F 93% 30.15 in 3.1 mi West 16.1 mph - N/A   Light Drizzle
12:30 PM 44.6 °F 37.4 °F 42.8 °F 93% 30.15 in 6.2 mi West 16.1 mph - N/A   Light Drizzle
1:00 PM 46.4 °F 40.1 °F 42.8 °F 87% 30.15 in 6.2 mi WNW 15.0 mph - N/A   Mostly Cloudy
1:30 PM 44.6 °F 37.2 °F 39.2 °F 81% 30.15 in 6.2 mi NW 17.3 mph - N/A   Mostly Cloudy
2:00 PM 44.6 °F 37.4 °F 39.2 °F 81% 30.15 in 6.2 mi NW 16.1 mph - N/A   Scattered Clouds
2:30 PM 44.6 °F 37.4 °F 37.4 °F 76% 30.15 in 6.2 mi NW 16.1 mph - N/A   Partly Cloudy
3:00 PM 42.8 °F 36.2 °F 37.4 °F 81% 30.15 in 6.2 mi NW 12.7 mph - N/A   Partly Cloudy
3:30 PM 41.0 °F 35.8 °F 35.6 °F 81% 30.15 in 6.2 mi WNW 8.1 mph - N/A   Partly Cloudy
4:00 PM 39.2 °F 33.0 °F 35.6 °F 87% 30.15 in 6.2 mi West 9.2 mph - N/A   Mostly Cloudy
4:30 PM 39.2 °F 32.0 °F 35.6 °F 87% 30.15 in 6.2 mi West 11.5 mph - N/A   Partly Cloudy
5:00 PM 39.2 °F 31.6 °F 33.8 °F 81% 30.15 in 6.2 mi West 12.7 mph - N/A   Partly Cloudy
5:30 PM 37.4 °F 29.3 °F 33.8 °F 87% 30.15 in 6.2 mi West 12.7 mph - N/A   Partly Cloudy
6:00 PM 38 °F - 34 °F 78% 30.19 in 19 mi WNW 8.9 mph - -   Partly Cloudy
6:00 PM 37.4 °F 30.8 °F 33.8 °F 87% 30.15 in 6.2 mi WNW 9.2 mph - N/A   Partly Cloudy
6:30 PM 35.6 °F 28.6 °F 33.8 °F 93% 30.18 in 6.2 mi West 9.2 mph - N/A   Partly Cloudy
7:00 PM 37.4 °F 30.8 °F 33.8 °F 87% 30.18 in 6.2 mi West 9.2 mph - N/A   Partly Cloudy
7:30 PM 37.4 °F 30.3 °F 33.8 °F 87% 30.18 in 6.2 mi West 10.4 mph - N/A   Partly Cloudy
8:00 PM 35.6 °F 28.0 °F 33.8 °F 93% 30.18 in 6.2 mi West 10.4 mph - N/A   Partly Cloudy
8:30 PM 35.6 °F 27.1 °F 33.8 °F 93% 30.18 in 6.2 mi West 12.7 mph - N/A   Partly Cloudy
9:00 PM 35.6 °F 28.6 °F 32.0 °F 87% 30.18 in 6.2 mi West 9.2 mph - N/A   Partly Cloudy
9:30 PM 33.8 °F 25.8 °F 32.0 °F 93% 30.18 in 6.2 mi West 10.4 mph - N/A   Partly Cloudy
10:00 PM 33.8 °F 25.3 °F 32.0 °F 93% 30.18 in 6.2 mi West 11.5 mph - N/A   Partly Cloudy
10:30 PM 33.8 °F 25.8 °F 32.0 °F 93% 30.21 in 6.2 mi West 10.4 mph - N/A   Partly Cloudy
11:00 PM 33.8 °F 25.8 °F 32.0 °F 93% 30.21 in 6.2 mi West 10.4 mph - N/A   Partly Cloudy
11:30 PM 32.0 °F 24.2 °F 30.2 °F 93% 30.21 in 6.2 mi West 9.2 mph - N/A   Partly Cloudy